Theta_e
309 309 309 308 307 308 307 308 306 308 309 312 316 320 326 331 335 334 337 340 343 344 346 347 349 350 351 352 354 354 353 353 354 357 357 358 358 359 360 360 360 361 362 359
306 308 308 306 308 308 308 309 308 309 309 316 322 325 328 331 333 334 336 338 340 342 342 343 344 347 350 353 355 355 354 353 356 357 357 357 357 358 359 358 359 359 359 359
303 306 306 303 307 308 309 310 309 306 311 319 321 327 329 330 333 334 337 338 340 340 341 343 340 343 347 349 352 351 349 352 355 357 357 357 357 357 356 357 358 360 358 358
302 306 297 308 313 312 309 311 312 312 314 320 322 326 328 329 329 332 333 338 340 340 340 340 340 341 342 346 347 347 347 346 348 349 349 352 355 356 358 357 358 359 358 358
303 302 306 307 309 309 308 308 314 314 316 320 324 324 326 328 330 331 334 338 339 340 340 338 339 336 337 340 344 343 342 343 343 342 342 343 345 350 353 359 359 356 357 358
305 301 298 308 312 315 313 305 316 316 317 318 322 312 320 329 331 333 335 338 337 337 337 336 334 336 336 338 340 339 339 339 338 336 334 333 338 342 348 353 355 355 358 360
304 303 306 312 316 317 303 307 315 318 318 319 318 322 330 332 332 334 335 336 337 336 333 331 334 334 332 335 337 336 337 336 333 330 328 329 329 334 341 348 354 354 354 355
305 303 300 315 315 308 315 319 318 318 321 324 327 330 330 330 331 332 332 332 332 332 332 331 333 335 333 336 337 336 336 334 329 325 322 321 322 336 338 345 350 343 333 330
307 306 318 319 318 320 321 321 323 325 327 328 329 328 329 329 330 329 329 330 331 328 329 330 331 334 333 337 336 336 336 331 326 324 319 317 317 323 334 340 333 327 324 321
309 313 317 318 323 324 324 324 327 326 328 327 327 328 328 328 329 327 328 329 330 329 327 327 330 334 337 338 336 336 331 331 325 321 314 311 308 316 317 323 326 323 319 315
311 315 317 319 323 325 326 328 328 329 329 328 327 327 328 328 328 328 327 325 326 326 325 327 331 332 338 335 336 335 329 332 327 322 318 311 303 302 309 308 315 314 313 314
307 318 321 322 325 328 327 327 328 328 327 328 329 329 330 329 329 328 325 326 327 327 327 327 329 331 335 337 338 333 329 331 326 322 319 316 310 306 302 300 299 299 301 307
317 322 323 326 327 329 328 328 328 328 329 328 330 330 330 328 329 322 328 330 327 326 327 326 327 332 337 337 338 334 329 330 324 321 322 317 313 310 306 304 300 297 296 296
322 324 323 325 325 328 329 328 325 329 331 331 331 331 330 328 325 326 326 329 328 326 325 324 325 330 336 337 335 330 328 314 327 322 321 321 318 312 310 308 305 304 301 298
323 324 325 329 328 327 328 328 327 328 329 329 331 330 329 328 328 327 327 331 329 324 323 322 323 326 332 336 333 331 330 329 325 320 316 313 312 311 312 310 312 308 307 304
322 324 326 326 326 326 326 327 326 326 327 328 329 329 330 330 328 326 327 329 328 327 328 325 321 323 326 331 333 329 326 319 322 317 312 314 318 318 313 312 309 311 310 309
317 320 322 324 324 325 326 329 328 327 327 327 329 330 330 327 326 324 325 327 327 326 326 326 328 333 332 329 324 320 318 317 317 318 316 315 314 314 313 311 312 312 310 309
321 324 326 327 325 327 326 327 327 329 329 328 330 330 329 325 324 324 324 328 328 327 327 329 330 328 327 326 325 323 321 319 318 317 317 317 317 317 316 315 314 314 315 313
320 318 325 326 327 327 327 327 328 329 330 330 330 329 329 326 326 325 326 328 328 327 327 330 321 327 329 328 327 325 324 322 322 320 320 315 318 319 318 317 316 316 317 316
319 320 323 326 328 328 328 329 330 329 330 330 330 329 326 325 326 326 327 327 329 327 331 327 327 330 331 326 322 325 324 324 323 323 322 320 320 320 320 313 318 318 318 317
319 319 319 323 327 329 330 331 330 330 330 330 330 329 327 327 326 327 326 323 330 331 331 323 328 326 328 324 323 322 322 321 321 321 323 321 321 321 321 321 320 319 318 318
318 318 319 320 322 325 329 331 332 332 332 331 331 331 328 327 326 326 328 326 328 318 329 329 329 325 324 319 322 321 320 318 318 318 318 319 320 319 320 321 320 320 319 319
324 321 320 321 323 327 330 331 332 333 333 332 332 331 329 326 326 323 322 329 330 324 330 331 325 318 314 322 321 320 320 320 318 317 316 317 317 318 320 320 320 320 319 319
326 325 324 323 325 328 328 332 331 334 336 336 335 335 331 327 327 329 330 321 319 320 329 329 324 314 312 324 321 318 316 319 320 319 317 307 319 319 320 320 319 320 319 316
326 328 327 325 323 322 326 331 332 333 335 336 336 337 335 333 330 331 330 331 317 321 329 317 314 312 322 325 322 320 316 315 318 320 318 318 319 319 319 320 318 318 318 317
322 322 325 330 328 326 323 325 325 327 329 329 331 332 333 334 333 332 333 324 332 322 330 331 329 324 327 327 323 321 317 317 316 319 317 319 319 319 318 318 317 316 315 315
321 310 322 324 326 329 330 330 327 325 325 327 327 330 331 331 330 328 323 332 331 330 329 331 330 323 328 327 323 322 319 318 312 317 319 319 320 319 318 318 318 317 315 315
Wind_Speed
18 8 8 17 16 14 16 15 12 4 14 8 11 15 14 11 9 8 8 8 7 7 6 5 5 4 4 5 6 8 10 12 13 12 13 11 12 13 13 13 13 15 14 15
14 12 13 12 10 13 15 15 9 14 10 6 1 6 10 11 12 10 8 8 8 7 6 6 5 3 3 2 2 4 8 10 10 11 10 12 12 13 13 14 14 14 15 16
15 12 11 14 13 14 15 12 13 14 13 9 8 10 12 11 8 7 8 9 8 7 6 6 5 3 2 2 2 2 3 6 8 9 11 11 12 13 13 15 15 14 15 16
8 9 15 3 2 9 14 13 13 11 4 5 5 5 4 2 5 6 5 7 7 7 7 6 6 5 2 1 2 2 3 5 6 8 10 11 11 14 15 15 16 14 15 17
7 14 7 8 7 8 10 11 11 11 8 9 7 6 6 3 2 4 5 6 6 6 6 6 5 4 2 1 2 4 5 7 7 8 11 13 14 15 16 14 14 14 16 16
10 16 19 8 8 6 5 11 10 13 11 10 9 9 8 8 7 7 6 7 7 8 7 6 5 4 2 1 3 4 7 9 11 11 13 14 15 16 16 16 14 14 15 16
11 12 8 6 11 10 11 4 7 14 11 8 9 4 9 8 7 5 6 7 6 6 6 5 5 4 3 2 4 5 6 9 10 11 11 13 15 15 16 15 14 14 14 12
12 14 10 13 13 12 3 6 6 5 6 8 6 6 5 5 5 5 6 7 6 5 5 6 6 5 4 2 3 2 6 8 10 10 8 9 12 10 13 15 14 8 7 4
9 8 4 17 7 12 5 9 7 8 8 8 7 6 5 5 5 5 4 4 5 5 5 5 4 4 5 5 2 5 7 9 10 11 10 9 8 9 9 11 6 6 7 6
5 7 8 15 2 8 7 7 8 6 8 7 6 5 5 5 4 4 4 3 3 4 5 5 5 6 3 5 3 5 7 9 9 11 11 12 8 7 7 6 3 5 5 4
7 2 6 13 9 11 9 8 8 7 7 6 6 6 6 7 6 5 4 4 4 5 5 6 6 5 6 4 3 7 3 7 11 9 9 10 13 11 8 10 9 9 8 6
8 3 2 10 14 11 12 10 10 10 8 6 7 9 9 8 7 6 5 5 5 6 6 6 6 6 7 6 5 7 5 6 9 8 6 6 9 13 27 26 28 24 19 17
2 3 3 3 15 12 11 11 10 8 8 10 10 9 9 9 7 6 6 7 5 5 5 6 6 9 9 6 6 7 5 6 4 6 6 5 6 9 13 17 26 24 20 19
2 7 5 15 8 12 10 10 9 9 10 10 10 9 9 8 8 6 5 6 6 6 6 6 6 7 7 6 5 6 7 2 5 5 5 5 8 7 7 9 11 9 13 11
9 0 1 7 15 12 11 11 11 12 13 11 9 9 9 9 8 7 6 8 9 7 6 6 6 6 5 5 7 6 6 6 7 6 6 5 7 8 9 10 11 9 5 6
1 0 7 11 12 12 12 12 11 12 12 10 10 9 9 8 8 8 7 7 8 8 10 10 7 6 6 7 8 7 7 7 11 8 7 9 9 9 9 10 9 9 7 6
7 4 4 7 10 11 12 10 9 11 11 10 10 10 9 9 9 9 8 7 8 8 8 9 9 10 11 10 9 7 8 7 7 8 8 8 7 7 8 8 8 9 9 8
7 7 10 11 12 12 11 10 9 10 10 10 10 10 10 10 10 10 10 9 9 8 8 8 9 10 9 8 7 8 8 8 6 7 8 7 8 9 8 6 8 8 9 6
11 11 13 11 11 11 10 10 9 9 9 11 11 11 10 10 10 11 11 11 10 9 9 8 6 6 9 6 5 6 7 7 8 7 7 9 7 7 8 10 9 8 9 9
14 12 11 10 11 11 10 9 9 10 10 11 11 11 11 11 11 11 12 12 10 7 11 10 10 7 7 8 6 6 6 7 7 7 7 8 6 7 7 7 8 9 8 8
11 10 9 9 10 10 11 11 11 12 12 12 13 12 12 12 12 12 12 10 11 8 11 13 9 8 7 8 8 7 7 6 6 6 7 9 8 8 8 8 9 8 8 7
7 9 8 6 7 6 11 14 14 12 14 14 13 12 13 13 13 13 13 11 10 13 10 10 9 8 5 8 9 7 7 7 7 6 7 6 7 7 8 8 8 7 7 7
5 6 7 11 9 10 13 14 14 15 15 15 15 15 14 11 11 12 12 15 9 14 12 10 10 13 11 8 7 7 8 8 8 7 6 7 8 8 8 9 9 8 8 7
5 3 4 5 8 8 11 11 14 14 14 14 15 14 13 11 11 11 10 12 16 15 14 11 13 16 13 9 8 8 8 9 9 8 7 5 7 8 9 8 8 7 7 6
6 4 3 5 7 5 5 7 11 11 12 11 11 13 15 12 11 10 11 10 15 15 14 11 18 17 12 10 9 9 8 9 9 9 9 8 8 8 8 8 7 7 6 7
5 3 3 4 3 3 6 7 7 8 8 9 9 9 10 10 11 10 10 11 12 15 12 12 13 13 13 12 11 10 9 9 10 10 10 10 9 9 9 9 7 7 8 8
4 1 4 2 2 2 2 1 4 6 6 6 7 6 7 8 8 9 10 11 11 12 12 11 12 13 13 12 12 12 10 10 10 11 12 11 10 10 11 10 9 9 8 8
Wind_Direction
246 277 201 200 193 208 227 252 261 241 218 255 199 206 192 175 158 160 152 143 131 131 125 127 127 151 178 207 217 221 228 232 225 216 222 233 249 237 236 238 232 238 243 239
236 230 229 219 217 210 230 249 247 254 249 265 38 221 186 184 176 170 164 146 139 133 133 119 103 89 81 80 196 235 238 249 253 243 239 241 238 239 234 232 235 240 241 238
220 201 204 222 207 219 227 228 246 244 246 145 187 190 194 189 179 167 170 168 164 152 150 133 133 144 145 144 164 190 274 287 276 264 257 246 238 239 239 237 237 230 235 236
215 183 216 188 116 250 247 248 237 256 260 200 184 150 145 140 171 175 182 162 156 159 148 140 154 101 22 85 61 0 313 311 303 289 281 275 272 253 240 237 236 230 230 229
178 211 211 188 189 202 219 235 218 229 176 154 146 165 117 143 167 168 168 148 149 149 147 157 144 140 137 186 4 336 331 319 307 294 282 279 272 259 255 244 233 225 228 229
216 222 227 248 146 187 200 246 189 216 196 174 185 223 124 134 142 138 140 148 161 156 155 173 157 174 166 118 324 338 342 328 318 305 292 282 277 269 264 251 239 236 227 231
229 225 225 98 144 163 202 91 167 198 215 199 220 25 109 120 118 140 146 157 161 166 163 178 177 184 177 247 19 352 335 324 320 309 294 285 280 257 255 250 240 233 234 227
238 218 207 148 152 196 190 123 140 185 169 185 165 134 127 128 147 158 166 161 196 181 175 169 184 182 188 176 62 14 351 348 339 332 319 305 296 246 241 242 233 222 148 135
235 204 118 171 148 192 227 158 163 167 166 179 179 180 173 180 185 190 227 210 198 190 179 168 190 197 205 114 54 43 22 8 6 359 351 338 331 344 244 236 150 161 158 161
260 182 151 185 162 149 189 163 149 163 169 182 182 175 177 181 170 179 198 221 216 194 179 184 192 211 208 122 84 73 42 29 28 25 17 10 358 11 24 26 115 146 136 121
226 151 130 193 186 174 155 149 139 138 154 169 173 168 155 143 157 155 158 173 190 182 174 186 174 197 156 128 113 98 45 63 60 40 33 44 46 23 38 40 64 71 58 65
231 69 335 200 193 170 164 160 164 153 153 161 164 146 140 130 130 138 146 158 174 169 156 157 171 172 157 168 139 101 82 40 65 55 39 53 62 60 50 58 57 57 66 89
95 31 301 206 162 171 160 160 167 161 158 155 150 143 136 133 140 108 141 141 156 149 145 152 160 177 160 171 120 102 97 99 74 59 68 45 63 82 86 58 57 45 41 55
108 130 152 138 165 174 154 160 165 147 148 153 150 150 143 138 140 145 128 111 135 132 140 146 156 163 156 159 111 104 125 112 107 91 64 66 90 83 88 93 93 71 31 37
145 124 218 148 146 146 158 162 160 154 150 152 160 158 153 147 153 139 136 135 123 125 126 138 156 151 154 147 128 152 172 122 107 100 91 72 68 72 82 83 91 95 87 49
351 118 158 152 136 168 161 173 170 157 158 160 165 164 157 149 145 145 141 134 147 133 141 146 145 161 158 164 154 146 95 93 118 131 142 152 145 132 126 122 125 128 134 138
282 224 140 162 175 174 172 179 177 162 160 167 168 163 156 149 155 156 157 151 129 134 131 132 127 138 145 156 158 136 125 145 121 136 146 141 134 125 130 143 139 137 139 162
247 295 222 215 181 170 174 179 166 163 165 169 164 168 164 169 173 165 166 157 153 147 144 141 151 151 155 155 152 143 140 152 152 139 136 143 132 136 141 139 132 141 142 156
230 222 237 214 178 177 177 180 168 157 161 173 168 174 175 180 178 174 173 176 170 169 161 162 137 187 154 139 194 163 152 155 143 147 147 123 169 144 144 151 149 143 140 153
214 213 205 205 174 188 175 184 173 169 172 173 171 173 181 186 186 184 185 194 193 186 154 157 183 169 166 154 242 185 172 176 168 159 161 182 172 171 161 153 150 154 156 147
214 218 195 195 172 190 187 185 187 183 180 177 180 182 186 186 187 190 193 205 195 169 184 152 193 172 184 163 203 217 189 195 186 186 176 211 165 189 178 174 180 167 163 158
208 206 195 187 185 184 213 198 193 191 186 186 190 184 186 189 191 198 209 216 178 159 197 190 197 191 171 173 215 199 210 192 197 186 192 203 197 196 183 183 181 176 168 165
202 178 199 210 201 199 210 206 195 198 195 192 194 195 193 191 193 197 203 208 224 173 202 201 180 152 148 204 209 230 205 212 212 202 206 201 203 201 191 186 176 173 172 171
37 299 239 207 187 199 203 201 201 202 207 202 205 207 198 204 204 214 215 181 199 160 207 202 165 160 177 202 204 212 223 214 217 218 211 215 193 190 185 171 182 174 171 172
41 11 207 216 222 205 202 205 210 211 205 217 217 212 215 220 227 212 208 205 175 190 199 178 158 167 197 207 200 203 205 215 214 210 213 198 206 195 183 182 187 182 181 190
9 341 9 2 353 192 196 192 211 206 204 212 214 214 215 217 225 238 229 213 196 194 213 190 187 186 202 208 203 203 207 204 204 210 215 202 201 199 190 191 181 181 192 190
343 19 357 342 139 59 45 322 249 224 219 239 262 238 223 225 221 230 222 220 217 195 213 208 186 193 198 201 205 205 202 208 203 201 202 204 197 196 194 190 185 185 190 187